Location: Unspecified
(43.3830°N, 0.0000°E)
Time: 08:58:08
(UTC+00:00)

Explorer 7 - Pass Details

Date: 29 June 2019
Orbit: 485 x 680 km, 50.3° (Epoch: 16 July)

Event Time Altitude Azimuth Distance (km) Brightness Sun altitude
Rises 09:15:06 0° 289° (WNW) 2,770 10.0 50.0°
Reaches altitude 10° 09:17:28 10° 299° (WNW) 1,908 9.3 50.5°
Maximum altitude 09:21:28 34° 5° (N) 1,017 8.5 51.2°
Drops below altitude 10° 09:25:42 10° 70° (ENE) 2,019 10.3 51.9°
Sets 09:28:16 0° 80° (E) 2,958 11.0 52.3°
